Skip Page Navigation
NASA JPL Caltech
NASA Logo - Jet Propulsion Laboratory + View the NASA Portal
+ Near-Earth Object (NEO) Program
Search JPL
JPL Home Earth Solar System Stars & Galaxies Technology
JPL Solar System Dynamics
BODIES ORBITS EPHEMERIDES TOOLS PHYSICAL DATA DISCOVERY FAQ SITE MAP
JPL Small-Body Database Browser
Search: [ help ]  
(2010 DG77)
Classification: Apollo [NEO, PHA]          SPK-ID: 3511311
Ephemeris | Orbit Diagram | Orbital Elements | Physical Parameters ]

[ hide orbit diagram ]
Orbit Diagram
Note: Make sure you have Java enabled on your browser to see the applet. This applet is provided as a 3D orbit visualization tool. The applet was implemented using 2-body methods, and hence should not be used for determining accurate long-term trajectories (over several years or decades) or planetary encounter circumstances. For accurate long-term ephemerides, please instead use our Horizons system.
Orbit Viewer

Additional Notes: the orbits shown in the applet are color coded. The planets are white lines, and the asteroid/comet is a blue line. The bright white line indicates the portion of the orbit that is above the ecliptic plane, and the darker portion is below the ecliptic plane. Likewise for the asteroid/comet orbit, the light blue indicates the portion above the ecliptic plane, and the dark blue the portion below the ecliptic plane.

Orbit Viewer applet originally written and kindly provided by Osamu Ajiki (AstroArts), and further modified by Ron Baalke (JPL).


Orbital Elements at Epoch 2455246.5 (2010-Feb-19.0) TDB
Reference: JPL 7 (heliocentric ecliptic J2000)
 Element Value Uncertainty (1-sigma)   Units 
e .6004475643236112 0.338  
a 2.396423877525563 2.0138 AU
q .9574969971783945 0.0066455 AU
i 15.83870496291889 5.9679 deg
node 284.9743956679536 7.6463 deg
peri 199.4673604060595 5.0559 deg
M 6.620585289759354 8.7519 deg
tp 2455221.580589283708
(2010-Jan-25.08058928)
2.5503 JED
period 1355.014317501708
3.71
1708
4.676
d
yr
n .2656798495411811 0.33488 deg/d
Q 3.835350757872731 3.2229 AU
  Orbit Determination Parameters
   # obs. used (total)      11  
   first obs. used      2010-02-19  
   last obs. used      2010-02-19  
   planetary ephem.      DE405  
   SB-pert. ephem.      SB405-CPV-2  
   condition code      9  
   fit RMS      .5374  
   data source      ORB  
   producer      Otto Matic  
   solution date      2012-Mar-13 12:40:23  

Additional Information
 Earth MOID = .00471513 AU 
 T_jup = 3.215 
[ show covariance matrix ]

Ephemeris | Orbit Diagram | Orbital Elements | Physical Parameters ]

Physical Parameter Table
Parameter Symbol Value Units Sigma Reference Notes
absolute magnitude H 21.079 mag .4357 7 autocmod 2.5b
Ephemeris | Orbit Diagram | Orbital Elements | Physical Parameters ]
ABOUT SSD CREDITS/AWARDS PRIVACY/COPYRIGHT GLOSSARY LINKS
FirstGov 2013-Jun-19 09:12 UT
(server date/time)  
NASA Home Page
Site Manager:   Donald K. Yeomans
Webmaster  Alan B. Chamberlin